Regional Weather Roundup
Issued by NWS Goodland, KS

Home | Current Version | Previous Version | Graphics & Text | Print | Product List | Glossary On
Versions: 1 2 3 4 5 6 7 8 9 10 11 12 13 14 15 16 17 18 19 20 21 22 23 24 25 26 27 28 29 30 31 32 33 34 35 36 37 38 39 40 41 42 43 44 45 46 47 48 49 50
000
ASUS43 KGLD 300608
RWRGLD

GOODLAND FORECAST AREA HOURLY WEATHER ROUNDUP
NATIONAL WEATHER SERVICE GOODLAND KS
1200 AM MDT TUE JUN 30 2015

...OFFICIAL OBSERVATIONS...

CITY           SKY/WX    TMP DP  RH WIND       PRES   REMARKS
GOODLAND KS    CLEAR     67  57  70 SW8       30.11R
HILL CITY KS   CLEAR     67  55  65 S3        30.02R
IMPERIAL NEB   CLEAR     69  56  62 SW3       30.08R
MCCOOK NEB     CLEAR     74  58  57 S3        30.04R
AKRON CO       CLEAR     66  55  67 SW7       30.18S
BURLINGTON CO  CLEAR     64  53  67 SW8       30.15F
LIMON CO       CLEAR     58  57  97 N5        30.24S
$$

...UNOFFICIAL OBSERVATIONS...

CITY           SKY/WX    TMP DP  RH WIND       PRES   REMARKS
COLBY KS       CLEAR     66  61  82 W6        30.09S
GOVE KS          N/A     66  32  28 MISG        N/A
NORTON KS      CLEAR     68  55  64 CALM      30.02
SHARON SPRINGS   N/A     66  56  71 SW5         N/A
KIT CARSON CO    N/A     62  52  69 MISG        N/A
YUMA CO          N/A     63  56  78 CALM        N/A
$$



USA.gov is the U.S. government's official web portal to all federal, state and local government web resources and services.